Location: Ku?niki
(51.4449°N, 17.8974°E)
Time: 07:11:56
(UTC+00:00)

Cosmos 1634 Rocket - Pass Details

Date: 18 September 2020
Orbit: 961 x 991 km, 82.9° (Epoch: 19 October)

Event Time Altitude Azimuth Distance (km) Brightness Sun altitude
Exits shadow 19:34:24 32° 183° (S) 1,596 4.8 -23.9°
Maximum altitude 19:37:30 84° 98° (E) 975 3.8 -24.3°
Drops below altitude 10° 19:43:44 10° 11° (N) 2,719 6.6 -25.1°
Sets 19:46:15 0° 11° (N) 3,673 7.4 -25.4°
